Time,TemperatureF,DewpointF,PressureIn,WindDirection,WindDirectionDegrees,WindSpeedMPH,WindSpeedGustMPH,Humidity,HourlyPrecipIn,Conditions,Clouds,dailyrainin,SoftwareType,DateUTC
2013-11-03 00:03:00,40.6,-99.9,-100.00,North,0,0.0,4.0,-999,0.00,,,-99.99,WeatherLink 5.4,2013-11-03 04:03:00,
2013-11-03 00:33:00,39.6,-99.9,-100.00,North,-999,0.0,0.0,-999,0.00,,,-99.99,WeatherLink 5.4,2013-11-03 04:33:00,
2013-11-03 01:03:00,39.6,-99.9,-100.00,North,-999,0.0,0.0,-999,0.00,,,-99.99,WeatherLink 5.4,2013-11-03 05:03:00,
2013-11-03 01:33:00,39.9,-99.9,-100.00,North,-999,0.0,0.0,-999,0.00,,,-99.99,WeatherLink 5.4,2013-11-03 05:33:00,
2013-11-03 01:03:00,39.7,-99.9,-100.00,North,-999,0.0,0.0,-999,0.00,,,-99.99,WeatherLink 5.4,2013-11-03 06:03:00,
2013-11-03 02:00:00,39.2,-99.9,-100.00,North,-999,0.0,0.0,-999,0.00,,,-99.99,WeatherLink 5.4,2013-11-03 07:00:00,
2013-11-03 12:00:00,52.0,-99.9,-100.00,ENE,67,2.0,9.0,-999,0.00,,,-99.99,WeatherLink 5.4,2013-11-03 17:00:00,
2013-11-03 12:04:00,52.0,-99.9,-100.00,ENE,67,2.0,9.0,-999,0.00,,,-99.99,WeatherLink 5.4,2013-11-03 17:04:00,
2013-11-03 12:30:00,46.9,-99.9,-100.00,NNE,22,1.0,7.0,-999,0.00,,,-99.99,WeatherLink 5.4,2013-11-03 17:30:00,
2013-11-03 12:34:00,46.9,-99.9,-100.00,NNE,22,1.0,7.0,-999,0.00,,,-99.99,WeatherLink 5.4,2013-11-03 17:34:00,
2013-11-03 13:00:00,45.2,-99.9,-100.00,ENE,67,1.0,7.0,-999,0.00,,,-99.99,WeatherLink 5.4,2013-11-03 18:00:00,
2013-11-03 13:04:00,45.2,-99.9,-100.00,ENE,67,1.0,7.0,-999,0.00,,,-99.99,WeatherLink 5.4,2013-11-03 18:04:00,
2013-11-03 13:30:00,45.7,-99.9,-100.00,North,0,2.0,8.0,-999,0.00,,,-99.99,WeatherLink 5.4,2013-11-03 18:30:00,
2013-11-03 13:34:00,45.7,-99.9,-100.00,North,0,2.0,8.0,-999,0.00,,,-99.99,WeatherLink 5.4,2013-11-03 18:34:00,
2013-11-03 14:00:00,45.0,-99.9,-100.00,North,0,2.0,7.0,-999,0.00,,,-99.99,WeatherLink 5.4,2013-11-03 19:00:00,
2013-11-03 14:04:00,45.0,-99.9,-100.00,North,0,2.0,7.0,-999,0.00,,,-99.99,WeatherLink 5.4,2013-11-03 19:04:00,
2013-11-03 14:30:00,45.4,-99.9,-100.00,North,0,1.0,8.0,-999,0.00,,,-99.99,WeatherLink 5.4,2013-11-03 19:30:00,
2013-11-03 14:34:00,45.4,-99.9,-100.00,North,0,1.0,8.0,-999,0.00,,,-99.99,WeatherLink 5.4,2013-11-03 19:34:00,
2013-11-03 15:00:00,45.1,-99.9,-100.00,NNE,22,1.0,6.0,-999,0.00,,,-99.99,WeatherLink 5.4,2013-11-03 20:00:00,
2013-11-03 15:04:00,45.1,-99.9,-100.00,NNE,22,1.0,6.0,-999,0.00,,,-99.99,WeatherLink 5.4,2013-11-03 20:04:00,
2013-11-03 15:30:00,44.5,-99.9,-100.00,North,0,1.0,7.0,-999,0.00,,,-99.99,WeatherLink 5.4,2013-11-03 20:30:00,
2013-11-03 15:34:00,44.5,-99.9,-100.00,North,0,1.0,7.0,-999,0.00,,,-99.99,WeatherLink 5.4,2013-11-03 20:34:00,
2013-11-03 16:00:00,43.8,-99.9,-100.00,NE,45,2.0,8.0,-999,0.00,,,-99.99,WeatherLink 5.4,2013-11-03 21:00:00,
2013-11-03 16:04:00,43.8,-99.9,-100.00,NE,45,2.0,8.0,-999,0.00,,,-99.99,WeatherLink 5.4,2013-11-03 21:04:00,
2013-11-03 16:30:00,42.5,-99.9,-100.00,NE,45,2.0,8.0,-999,0.00,,,-99.99,WeatherLink 5.4,2013-11-03 21:30:00,
2013-11-03 16:34:00,42.5,-99.9,-100.00,NE,45,2.0,8.0,-999,0.00,,,-99.99,WeatherLink 5.4,2013-11-03 21:34:00,
2013-11-03 17:00:00,40.7,-99.9,-100.00,NE,45,2.0,7.0,-999,0.00,,,-99.99,WeatherLink 5.4,2013-11-03 22:00:00,
2013-11-03 17:04:00,40.7,-99.9,-100.00,NE,45,2.0,7.0,-999,0.00,,,-99.99,WeatherLink 5.4,2013-11-03 22:04:00,
2013-11-03 17:30:00,38.5,-99.9,-100.00,ENE,67,1.0,6.0,-999,0.00,,,-99.99,WeatherLink 5.4,2013-11-03 22:30:00,
2013-11-03 17:34:00,38.5,-99.9,-100.00,ENE,67,1.0,6.0,-999,0.00,,,-99.99,WeatherLink 5.4,2013-11-03 22:34:00,
2013-11-03 18:00:00,36.6,-99.9,-100.00,ENE,67,1.0,5.0,-999,0.00,,,-99.99,WeatherLink 5.4,2013-11-03 23:00:00,
2013-11-03 18:04:00,36.6,-99.9,-100.00,ENE,67,1.0,5.0,-999,0.00,,,-99.99,WeatherLink 5.4,2013-11-03 23:04:00,
2013-11-03 18:30:00,35.3,-99.9,-100.00,ENE,67,0.0,3.0,-999,0.00,,,-99.99,WeatherLink 5.4,2013-11-03 23:30:00,
2013-11-03 18:34:00,35.3,-99.9,-100.00,ENE,67,0.0,3.0,-999,0.00,,,-99.99,WeatherLink 5.4,2013-11-03 23:34:00,
2013-11-03 19:00:00,34.2,-99.9,-100.00,North,-999,0.0,0.0,-999,0.00,,,-99.99,WeatherLink 5.4,2013-11-04 00:00:00,
2013-11-03 19:04:00,34.2,-99.9,-100.00,North,-999,0.0,0.0,-999,0.00,,,-99.99,WeatherLink 5.4,2013-11-04 00:04:00,
2013-11-03 19:30:00,33.2,-99.9,-100.00,North,-999,0.0,0.0,-999,0.00,,,-99.99,WeatherLink 5.4,2013-11-04 00:30:00,
2013-11-03 19:34:00,33.2,-99.9,-100.00,North,-999,0.0,0.0,-999,0.00,,,-99.99,WeatherLink 5.4,2013-11-04 00:34:00,
2013-11-03 20:00:00,32.6,-99.9,-100.00,ENE,67,0.0,3.0,-999,0.00,,,-99.99,WeatherLink 5.4,2013-11-04 01:00:00,
2013-11-03 20:04:00,32.6,-99.9,-100.00,ENE,67,0.0,3.0,-999,0.00,,,-99.99,WeatherLink 5.4,2013-11-04 01:04:00,
2013-11-03 20:30:00,32.0,-99.9,-100.00,North,-999,0.0,0.0,-999,0.00,,,-99.99,WeatherLink 5.4,2013-11-04 01:30:00,
2013-11-03 20:34:00,32.0,-99.9,-100.00,North,-999,0.0,0.0,-999,0.00,,,-99.99,WeatherLink 5.4,2013-11-04 01:34:00,
2013-11-03 21:00:00,31.5,-99.9,-100.00,North,-999,0.0,0.0,-999,0.00,,,-99.99,WeatherLink 5.4,2013-11-04 02:00:00,
2013-11-03 21:04:00,31.5,-99.9,-100.00,North,-999,0.0,0.0,-999,0.00,,,-99.99,WeatherLink 5.4,2013-11-04 02:04:00,
2013-11-03 21:30:00,31.0,-99.9,-100.00,North,-999,0.0,0.0,-999,0.00,,,-99.99,WeatherLink 5.4,2013-11-04 02:30:00,
2013-11-03 21:34:00,31.0,-99.9,-100.00,North,-999,0.0,0.0,-999,0.00,,,-99.99,WeatherLink 5.4,2013-11-04 02:34:00,
2013-11-03 22:00:00,31.0,-99.9,-100.00,North,-999,0.0,0.0,-999,0.00,,,-99.99,WeatherLink 5.4,2013-11-04 03:00:00,
2013-11-03 22:04:00,31.0,-99.9,-100.00,North,-999,0.0,0.0,-999,0.00,,,-99.99,WeatherLink 5.4,2013-11-04 03:04:00,
2013-11-03 22:30:00,30.5,-99.9,-100.00,North,-999,0.0,0.0,-999,0.00,,,-99.99,WeatherLink 5.4,2013-11-04 03:30:00,
2013-11-03 23:00:00,29.9,-99.9,-100.00,ENE,67,0.0,3.0,-999,0.00,,,-99.99,WeatherLink 5.4,2013-11-04 04:00:00,
2013-11-03 23:30:00,30.0,-99.9,-100.00,ENE,67,0.0,4.0,-999,0.00,,,-99.99,WeatherLink 5.4,2013-11-04 04:30:00,